Weather in Olomouc

Czech Republic     49°35′43″N   17°15′16″E
temp.,
°C
wind,
m/s
gust,
m/s
humid.,
%
clouds,
%
prec.,
mm/h
press.,
hPa
HPBL,
m
20 january, thu
thu2001:00+1ssw61178100 0.0 1018470
04:00+1wsw51196100 0.3 1017450
07:00+2w61280100 0.4 1016563
10:00+3w612647 0.1 10151291
13:00+1nw81494100 0.7 10151176
16:000nw815635 0.3 1016997
19:00−1wnw61369100 0.3 1017681
22:000wnw61376100 0.3 10181097
21 january, fri
fri2101:00−2nw814769 0.3 1019785
04:00−3nw8137246 0.1 1021965
07:00−3nw8137362 0.1 10221067
10:00−2nw813635 0.0 10241103
13:000nw813551 0.0 10221290
16:00−1nw7126599 0.0 10221038
19:00−2nw6137492 0.1 10231168
22:00−2nw7128162 0.1 1025855
22 january, sat
sat2201:00−2nw61270100 0.2 1024717
04:00−2nw6138346 0.0 1024554
07:00−3nw5118525 0.0 1023379
10:00−1nnw59785 0.0 1023527
13:00+1nnw566074 0.0 10241020
16:00−1n246860 0.1 1026101
19:00−3nnw36770 0.1 1029146
22:00−5nnw24805 0.0 1030146
23 january, sun
sun2301:00−5n248272 0.0 1030122
04:00−6n2481100 0.0 1030119
07:00−6n228184 0.0 103145
10:00−4n116885 0.0 1032203
13:00−1nnw12574 0.0 1032510
16:00−2ene116482 0.0 103214
19:00−4nne22785 0.0 103450
22:00−4nnw35818 0.0 1035113
24 january, mon
mon2401:00−5nnw35845 0.0 1035111
04:00−6nnw23865 0.0 103567
07:00−6n22887 0.0 103647
10:00−4n12765 0.0 1036209
13:00−2nw116347 0.0 1035383
16:00−2e1166100 0.0 103410
19:00−3sse1170100 0.0 103411
22:00−2s1171100 0.0 103414